This demonstration page uses our WeatherBlox Daily Observations layout. Learn more.

Left ArrowRight Arrow

53.62937, 11.41316

Hourly Observations for July 29, 2022

Temp ( °F °C ) Dew Point ( °F °C ) Humidity (%) Winds ( mph kmh ) Pressure ( in mb ) Visibility ( mi km ) Precip ( " mm )
12:20 am 00:20 Mostly Clear 54 12 48 9 82 82 E 3 6 30.12 1020 30 48 N/A
12:50 am 00:50 Mostly Clear 52 11 48 9 88 88 VRB 1 2 30.15 1021 30 48 N/A
1:20 am 01:20 Mostly Clear 50 10 48 9 94 94 VRB 1 2 30.15 1021 30 48 N/A
1:50 am 01:50 Mostly Clear 50 10 48 9 94 94 VRB 2 4 30.15 1021 30 48 N/A
2:20 am 02:20 Mostly Clear 50 10 46 8 88 88 E 2 4 30.15 1021 30 48 N/A
2:50 am 02:50 Mostly Clear 48 9 46 8 94 94 E 2 4 30.15 1021 30 48 N/A
3:20 am 03:20 Mostly Clear 48 9 46 8 94 94 E 3 6 30.12 1020 30 48 N/A
3:50 am 03:50 Mostly Clear 48 9 46 8 94 94 E 2 4 30.12 1020 30 48 N/A
4:20 am 04:20 Mostly Clear 48 9 46 8 94 94 Calm 30.12 1020 30 48 N/A
4:50 am 04:50 Mostly Clear 48 9 46 8 94 94 Calm 30.12 1020 30 48 N/A
5:20 am 05:20 Mostly Clear 48 9 46 8 94 94 Calm 30.12 1020 30 48 N/A
5:50 am 05:50 Mostly Sunny 48 9 46 8 94 94 VRB 2 4 30.12 1020 30 48 N/A
6:20 am 06:20 Mostly Sunny 48 9 46 8 94 94 ENE 2 4 30.12 1020 7 11 N/A
6:50 am 06:50 Mostly Sunny 50 10 48 9 94 94 NE 2 4 30.12 1020 7 11 N/A
7:20 am 07:20 Mostly Sunny 52 11 50 10 94 94 ENE 2 4 30.12 1020 7 11 N/A
7:50 am 07:50 Mostly Sunny 55 13 50 10 82 82 E 3 6 30.12 1020 7 11 N/A
8:20 am 08:20 Mostly Sunny 59 15 52 11 77 77 E 6 9 30.12 1020 7 11 N/A
8:50 am 08:50 Mostly Sunny 61 16 52 11 72 72 E 6 9 30.12 1020 7 11 N/A
9:20 am 09:20 Mostly Sunny 63 17 50 10 64 64 E 8 13 30.12 1020 7 11 N/A
9:50 am 09:50 Mostly Sunny 64 18 52 11 64 64 ENE 8 13 30.09 1019 7 11 N/A
10:20 am 10:20 Mostly Sunny 66 19 54 12 64 64 E 8 13 30.09 1019 7 11 N/A
10:50 am 10:50 Mostly Sunny 68 20 50 10 53 53 E 9 15 30.09 1019 7 11 N/A
11:20 am 11:20 Mostly Sunny 72 22 54 12 53 53 ENE 10 17 30.09 1019 7 11 N/A
11:50 am 11:50 Mostly Sunny 72 22 52 11 50 50 ENE 10 17 30.09 1019 7 11 N/A
12:20 pm 12:20 Mostly Sunny 73 23 52 11 47 47 ENE 9 15 30.09 1019 7 11 N/A
12:50 pm 12:50 Mostly Sunny 75 24 54 12 47 47 NE 10 17 30.09 1019 7 11 N/A
1:20 pm 13:20 Mostly Sunny 75 24 55 13 50 50 NE 10 17 30.09 1019 7 11 N/A
1:50 pm 13:50 Mostly Sunny 73 23 55 13 53 53 NE 14 22 30.06 1018 7 11 N/A
2:20 pm 14:20 Mostly Sunny 72 22 55 13 57 57 NE 13 20 30.06 1018 7 11 N/A
2:50 pm 14:50 Mostly Sunny 72 22 55 13 57 57 NE 15 24 30.06 1018 7 11 N/A
3:20 pm 15:20 Mostly Sunny 70 21 57 14 64 64 NNE 13 20 30.06 1018 7 11 N/A
3:50 pm 15:50 Mostly Sunny 72 22 59 15 65 65 NE 14 22 30.06 1018 7 11 N/A
4:20 pm 16:20 Mostly Sunny 70 21 59 15 69 69 NE 14 22 30.06 1018 7 11 N/A
4:50 pm 16:50 Mostly Sunny 72 22 59 15 65 65 NNE 14 22 30.06 1018 7 11 N/A
5:20 pm 17:20 Mostly Sunny 72 22 59 15 65 65 NE 14 22 30.06 1018 7 11 N/A
5:50 pm 17:50 Mostly Sunny 72 22 59 15 65 65 NE 14 22 30.03 1017 7 11 N/A
6:20 pm 18:20 Mostly Sunny 70 21 59 15 69 69 NE 15 24 30.03 1017 7 11 N/A
6:50 pm 18:50 Mostly Sunny 70 21 59 15 69 69 NNE 10 17 30.03 1017 7 11 N/A
7:20 pm 19:20 Mostly Sunny 70 21 59 15 69 69 NNE 10 17 30.03 1017 7 11 N/A
7:50 pm 19:50 Mostly Sunny 68 20 59 15 73 73 NNE 9 15 30.03 1017 7 11 N/A
8:20 pm 20:20 Mostly Sunny 68 20 61 16 78 78 NNE 8 13 30.03 1017 7 11 N/A
8:50 pm 20:50 Mostly Sunny 66 19 59 15 78 78 NNE 6 9 30.03 1017 7 11 N/A
9:20 pm 21:20 Mostly Sunny 64 18 61 16 88 88 NE 6 9 30.03 1017 7 11 N/A
9:50 pm 21:50 Mostly Clear 64 18 61 16 88 88 ENE 6 9 30.03 1017 7 11 N/A
10:20 pm 22:20 Mostly Clear 63 17 59 15 88 88 ENE 5 7 30.03 1017 7 11 N/A
10:50 pm 22:50 Mostly Cloudy 63 17 59 15 88 88 NE 3 6 30.03 1017 30 48 N/A
11:20 pm 23:20 Mostly Cloudy 63 17 59 15 88 88 VRB 2 4 30.03 1017 30 48 N/A
11:50 pm 23:50 Cloudy 63 17 59 15 88 88 NE 3 6 30.03 1017 30 48 N/A

Powered by AerisWeather